Location: Newark
(47.3833°N, 8.2167°E)
Time: 18:37:54
(UTC+00:00)

Envisat - Visible Passes

Search period start: 28 September 2020 00:00
Search period end: 08 October 2020 00:00
Orbit: 764 x 766 km, 98.1° (Epoch: 28 September)

Date Brightness Start Highest point End Pass type
(mag) Time Alt. Az. Time Alt. Az. Time Alt. Az.
28 Sep 6.1 17:57:03 10° SW 18:00:27 18° W 18:03:51 10° NW visible
29 Sep 6.1 04:22:32 10° NE 04:26:00 18° E 04:29:27 10° SE visible
30 Sep 6.8 18:25:45 10° W 18:26:14 10° W 18:26:45 10° W visible
01 Oct 5.3 04:47:14 10° NNE 04:51:42 30° E 04:56:08 10° SSE visible
01 Oct 5.9 17:45:02 10° SW 17:48:57 22° W 17:52:53 10° NW visible
02 Oct 6.3 04:11:44 10° NE 04:14:30 15° E 04:17:15 10° ESE visible
03 Oct 6.4 18:12:22 10° WSW 18:14:43 13° W 18:17:03 10° WNW visible
04 Oct 5.7 04:36:07 10° NE 04:40:14 24° E 04:44:20 10° SSE visible
04 Oct 5.5 17:33:12 10° SSW 17:37:29 27° W 17:41:48 10° NW visible
05 Oct 6.5 04:01:19 10° ENE 04:02:58 11° E 04:04:37 10° ESE visible
06 Oct 4.7 05:01:05 10° NNE 05:05:53 40° E 05:10:38 10° SSE visible
06 Oct 6.2 18:00:02 10° SW 18:03:12 16° W 18:06:23 10° NW visible
07 Oct 6.0 04:25:05 10° NE 04:28:45 20° E 04:32:24 10° SE visible
07 Oct 5.1 17:21:27 10° SSW 17:26:02 33° W 17:30:38 10° NNW visible
